TimeCDT,TemperatureF,Dew PointF,Humidity,Sea Level PressureIn,VisibilityMPH,Wind Direction,Wind SpeedMPH,Gust SpeedMPH,PrecipitationIn,Events,Conditions,WindDirDegrees,DateUTC
12:15 AM,58.1,44.2,60,29.96,10.0,Calm,Calm,-,N/A,,Clear,0,2013-10-02 05:15:00
12:35 AM,58.6,44.1,58,29.96,10.0,NNW,3.5,-,N/A,,Clear,340,2013-10-02 05:35:00
12:55 AM,58.1,44.6,61,29.96,10.0,Calm,Calm,-,N/A,,Clear,0,2013-10-02 05:55:00
1:15 AM,58.1,44.4,60,29.96,10.0,Calm,Calm,-,N/A,,Clear,0,2013-10-02 06:15:00
1:35 AM,56.3,45.7,68,29.96,10.0,Calm,Calm,-,N/A,,Clear,0,2013-10-02 06:35:00
1:55 AM,56.1,46.2,69,29.96,10.0,Calm,Calm,-,N/A,,Clear,0,2013-10-02 06:55:00
2:15 AM,56.5,45.5,67,29.96,10.0,North,3.5,-,N/A,,Clear,350,2013-10-02 07:15:00
2:35 AM,54.9,46.6,74,29.96,10.0,Calm,Calm,-,N/A,,Clear,0,2013-10-02 07:35:00
2:55 AM,55.0,45.9,71,29.96,10.0,NNW,3.5,-,N/A,,Clear,340,2013-10-02 07:55:00
3:15 AM,54.5,46.2,74,29.96,10.0,Calm,Calm,-,N/A,,Clear,0,2013-10-02 08:15:00
3:35 AM,55.0,45.9,71,29.96,10.0,Calm,Calm,-,N/A,,Clear,0,2013-10-02 08:35:00
3:55 AM,54.0,46.9,77,29.95,10.0,Calm,Calm,-,N/A,,Clear,0,2013-10-02 08:55:00
4:15 AM,54.7,46.4,74,29.95,10.0,Calm,Calm,-,N/A,,Clear,0,2013-10-02 09:15:00
4:35 AM,54.0,46.6,76,29.95,10.0,Calm,Calm,-,N/A,,Clear,0,2013-10-02 09:35:00
4:55 AM,53.8,46.8,77,29.95,10.0,Calm,Calm,-,N/A,,Clear,0,2013-10-02 09:55:00
5:15 AM,53.6,47.1,79,29.95,3.0,Calm,Calm,-,N/A,,Haze,0,2013-10-02 10:15:00
5:35 AM,54.0,47.5,79,29.95,7.0,Calm,Calm,-,N/A,,Clear,0,2013-10-02 10:35:00
5:55 AM,54.5,46.4,74,29.95,10.0,Calm,Calm,-,N/A,,Clear,0,2013-10-02 10:55:00
6:15 AM,55.4,47.1,74,29.95,10.0,Calm,Calm,-,N/A,,Clear,0,2013-10-02 11:15:00
6:35 AM,54.9,47.5,76,29.95,10.0,Calm,Calm,-,N/A,,Clear,0,2013-10-02 11:35:00
6:55 AM,55.2,47.7,76,29.95,10.0,Calm,Calm,-,N/A,,Clear,0,2013-10-02 11:55:00
7:15 AM,55.2,48.2,77,29.95,10.0,Calm,Calm,-,N/A,,Clear,0,2013-10-02 12:15:00
7:35 AM,54.7,50.0,84,29.94,10.0,ESE,4.6,-,N/A,,Scattered Clouds,110,2013-10-02 12:35:00
7:55 AM,56.1,53.4,91,29.95,10.0,SE,5.8,-,N/A,,Scattered Clouds,130,2013-10-02 12:55:00
8:15 AM,60.3,57.4,90,29.95,7.0,SE,4.6,-,N/A,,Scattered Clouds,130,2013-10-02 13:15:00
8:35 AM,62.6,59.0,88,29.95,7.0,SE,5.8,-,N/A,,Overcast,140,2013-10-02 13:35:00
8:55 AM,64.0,59.9,86,29.95,7.0,SE,9.2,-,N/A,,Mostly Cloudy,130,2013-10-02 13:55:00
9:15 AM,66.2,61.0,83,29.95,7.0,SE,10.4,-,N/A,,Scattered Clouds,140,2013-10-02 14:15:00
9:35 AM,67.3,61.7,82,29.95,7.0,SE,10.4,-,N/A,,Clear,140,2013-10-02 14:35:00
9:55 AM,68.2,61.7,80,29.95,10.0,SSE,9.2,-,N/A,,Scattered Clouds,150,2013-10-02 14:55:00
10:15 AM,69.8,62.2,77,29.95,10.0,SE,8.1,-,N/A,,Scattered Clouds,140,2013-10-02 15:15:00
10:35 AM,72.9,62.6,70,29.94,10.0,North,-9999.0,-,N/A,,Scattered Clouds,0,2013-10-02 15:35:00
10:55 AM,75.4,63.0,65,29.94,10.0,North,-9999.0,-,N/A,,Clear,0,2013-10-02 15:55:00
11:15 AM,77.9,62.4,59,29.93,10.0,North,-9999.0,-,N/A,,Clear,0,2013-10-02 16:15:00
11:35 AM,79.3,61.3,54,29.93,10.0,South,10.4,16.1,N/A,,Clear,170,2013-10-02 16:35:00
11:55 AM,81.9,61.5,50,29.92,10.0,South,10.4,16.1,N/A,,Scattered Clouds,170,2013-10-02 16:55:00
12:15 PM,82.0,60.4,48,29.92,10.0,South,10.4,-,N/A,,Scattered Clouds,180,2013-10-02 17:15:00
12:35 PM,82.4,61.0,48,29.91,10.0,South,13.8,-,N/A,,Scattered Clouds,170,2013-10-02 17:35:00
12:55 PM,84.2,60.1,44,29.91,10.0,South,15.0,21.9,N/A,,Scattered Clouds,180,2013-10-02 17:55:00
1:15 PM,84.4,59.5,43,29.90,10.0,South,15.0,23.0,N/A,,Scattered Clouds,180,2013-10-02 18:15:00
1:35 PM,84.0,59.0,43,29.88,10.0,South,20.7,26.5,N/A,,Scattered Clouds,190,2013-10-02 18:35:00
1:55 PM,85.5,59.5,41,29.88,10.0,South,19.6,27.6,N/A,,Scattered Clouds,180,2013-10-02 18:55:00
2:15 PM,84.7,58.8,41,29.86,10.0,SSE,16.1,28.8,N/A,,Scattered Clouds,150,2013-10-02 19:15:00
2:35 PM,85.3,57.9,39,29.86,10.0,South,18.4,27.6,N/A,,Scattered Clouds,170,2013-10-02 19:35:00
2:55 PM,85.5,57.9,39,29.85,10.0,South,16.1,26.5,N/A,,Mostly Cloudy,170,2013-10-02 19:55:00
3:15 PM,86.0,57.7,38,29.85,10.0,SSE,19.6,24.2,N/A,,Scattered Clouds,160,2013-10-02 20:15:00
3:35 PM,87.1,55.8,34,29.84,10.0,South,17.3,24.2,N/A,,Scattered Clouds,190,2013-10-02 20:35:00
3:55 PM,86.4,56.1,36,29.84,10.0,South,17.3,25.3,N/A,,Scattered Clouds,190,2013-10-02 20:55:00
4:15 PM,86.2,56.3,36,29.83,10.0,South,20.7,24.2,N/A,,Scattered Clouds,170,2013-10-02 21:15:00
4:35 PM,86.0,55.9,36,29.83,10.0,South,16.1,23.0,N/A,,Clear,170,2013-10-02 21:35:00
4:55 PM,85.1,56.3,37,29.83,10.0,South,17.3,21.9,N/A,,Scattered Clouds,180,2013-10-02 21:55:00
5:15 PM,84.6,56.8,39,29.83,10.0,South,12.7,20.7,N/A,,Scattered Clouds,180,2013-10-02 22:15:00
5:35 PM,83.7,57.4,41,29.82,10.0,South,13.8,-,N/A,,Scattered Clouds,190,2013-10-02 22:35:00
5:55 PM,83.7,57.9,41,29.83,10.0,SSW,12.7,17.3,N/A,,Scattered Clouds,200,2013-10-02 22:55:00
6:15 PM,82.6,57.2,42,29.83,10.0,South,12.7,-,N/A,,Clear,190,2013-10-02 23:15:00
6:35 PM,80.2,57.9,46,29.83,10.0,South,9.2,-,N/A,,Clear,190,2013-10-02 23:35:00
6:55 PM,78.3,57.7,49,29.83,10.0,South,8.1,-,N/A,,Clear,190,2013-10-02 23:55:00
7:15 PM,75.2,58.1,55,29.83,10.0,South,8.1,-,N/A,,Clear,170,2013-10-03 00:15:00
7:35 PM,74.5,58.6,58,29.82,10.0,SSE,11.5,-,N/A,,Clear,160,2013-10-03 00:35:00
7:55 PM,74.3,59.2,59,29.82,10.0,SSE,11.5,-,N/A,,Clear,160,2013-10-03 00:55:00
8:15 PM,73.8,59.9,62,29.82,10.0,SSE,9.2,-,N/A,,Clear,160,2013-10-03 01:15:00
8:35 PM,72.3,59.9,65,29.83,10.0,South,6.9,-,N/A,,Clear,180,2013-10-03 01:35:00
8:55 PM,71.4,59.9,67,29.83,10.0,South,9.2,-,N/A,,Clear,170,2013-10-03 01:55:00
9:15 PM,72.3,60.3,66,29.83,10.0,South,9.2,-,N/A,,Clear,170,2013-10-03 02:15:00
9:35 PM,72.7,60.3,65,29.83,10.0,South,11.5,-,N/A,,Clear,170,2013-10-03 02:35:00
9:55 PM,73.2,60.4,64,29.83,10.0,South,12.7,-,N/A,,Clear,170,2013-10-03 02:55:00
10:15 PM,73.4,60.8,65,29.82,10.0,South,13.8,-,N/A,,Clear,170,2013-10-03 03:15:00
10:35 PM,72.9,61.2,67,29.83,10.0,South,11.5,-,N/A,,Clear,170,2013-10-03 03:35:00
10:55 PM,72.5,61.7,69,29.83,10.0,South,10.4,-,N/A,,Clear,170,2013-10-03 03:55:00
11:15 PM,72.5,62.2,70,29.84,10.0,South,8.1,-,N/A,,Clear,190,2013-10-03 04:15:00
11:35 PM,70.7,59.7,68,29.87,10.0,NNW,16.1,20.7,N/A,,Mostly Cloudy,340,2013-10-03 04:35:00
11:55 PM,67.1,59.0,75,29.89,10.0,NNW,19.6,35.7,N/A,,Overcast,340,2013-10-03 04:55:00